TimeCDT,TemperatureF,Dew PointF,Humidity,Sea Level PressureIn,VisibilityMPH,Wind Direction,Wind SpeedMPH,Gust SpeedMPH,PrecipitationIn,Events,Conditions,WindDirDegrees,DateUTC
12:14 AM,69.8,59.0,68,29.68,10.0,SE,10.4,-,N/A,,Scattered Clouds,140,2013-05-19 05:14:00
12:33 AM,73.4,57.2,57,29.67,10.0,SSE,16.1,-,N/A,,Clear,150,2013-05-19 05:33:00
12:54 AM,71.6,57.2,60,29.68,10.0,SSE,15.0,-,N/A,,Clear,150,2013-05-19 05:54:00
1:14 AM,73.4,57.2,57,29.67,10.0,SSE,18.4,-,N/A,,Scattered Clouds,150,2013-05-19 06:14:00
1:33 AM,73.4,57.2,57,29.67,10.0,SSE,18.4,-,N/A,,Scattered Clouds,150,2013-05-19 06:33:00
1:54 AM,71.6,59.0,64,29.66,10.0,SSE,17.3,-,N/A,,Scattered Clouds,150,2013-05-19 06:54:00
2:14 AM,71.6,59.0,64,29.67,10.0,SSE,17.3,23.0,N/A,,Scattered Clouds,150,2013-05-19 07:14:00
2:33 AM,71.6,59.0,64,29.66,10.0,SSE,15.0,-,N/A,,Clear,150,2013-05-19 07:33:00
2:53 AM,71.6,59.0,64,29.67,10.0,SSE,13.8,-,N/A,,Scattered Clouds,150,2013-05-19 07:53:00
3:14 AM,71.6,60.8,69,29.68,10.0,SSE,15.0,-,N/A,Thunderstorm,Thunderstorm,160,2013-05-19 08:14:00
3:33 AM,64.4,59.0,83,29.72,5.0,WSW,13.8,27.6,0.03,Rain-Thunderstorm,Heavy Thunderstorms and Rain,240,2013-05-19 08:33:00
3:54 AM,62.6,59.0,88,29.69,10.0,WSW,5.8,-,0.13,Rain-Thunderstorm,Thunderstorms and Rain,240,2013-05-19 08:54:00
4:14 AM,62.6,60.8,94,29.67,7.0,Calm,Calm,-,0.02,Rain,Rain,0,2013-05-19 09:14:00
4:33 AM,62.6,60.8,94,29.64,7.0,ENE,10.4,-,0.06,Rain,Rain,60,2013-05-19 09:33:00
4:54 AM,60.8,60.8,100,29.65,7.0,East,11.5,-,0.07,,Scattered Clouds,100,2013-05-19 09:54:00
5:14 AM,60.8,60.8,100,29.65,10.0,ESE,10.4,-,N/A,,Scattered Clouds,110,2013-05-19 10:14:00
5:33 AM,60.8,59.0,94,29.62,7.0,East,9.2,-,N/A,,Scattered Clouds,90,2013-05-19 10:33:00
5:54 AM,60.8,59.0,94,29.62,7.0,ESE,9.2,-,N/A,,Clear,110,2013-05-19 10:54:00
6:14 AM,60.8,59.0,94,29.61,7.0,ESE,11.5,-,N/A,,Clear,120,2013-05-19 11:14:00
6:33 AM,62.6,60.8,94,29.60,10.0,SE,8.1,-,N/A,,Clear,130,2013-05-19 11:33:00
7:13 AM,62.6,60.8,94,29.58,7.0,ESE,8.1,-,N/A,,Clear,110,2013-05-19 12:13:00
7:34 AM,62.6,60.8,94,29.59,7.0,SE,9.2,-,N/A,,Clear,130,2013-05-19 12:34:00
7:54 AM,64.4,62.6,94,29.61,7.0,SSE,10.4,-,N/A,,Scattered Clouds,150,2013-05-19 12:54:00
8:13 AM,64.4,62.6,94,29.62,5.0,SE,13.8,-,N/A,,Scattered Clouds,140,2013-05-19 13:13:00
8:34 AM,66.2,62.6,88,29.63,4.0,SSE,20.7,25.3,N/A,,Scattered Clouds,150,2013-05-19 13:34:00
8:54 AM,68.0,64.4,88,29.62,5.0,SE,20.7,25.3,N/A,,Clear,140,2013-05-19 13:54:00
9:13 AM,69.8,64.4,83,29.61,7.0,SE,21.9,26.5,N/A,,Clear,140,2013-05-19 14:13:00
9:54 AM,69.8,62.6,78,29.62,10.0,SSE,24.2,-,N/A,,Scattered Clouds,160,2013-05-19 14:54:00
10:13 AM,69.8,60.8,73,29.63,10.0,South,23.0,27.6,N/A,,Mostly Cloudy,180,2013-05-19 15:13:00
10:33 AM,68.0,60.8,78,29.62,10.0,South,17.3,-,N/A,,Mostly Cloudy,190,2013-05-19 15:33:00
10:54 AM,69.8,60.8,73,29.62,10.0,South,16.1,-,N/A,,Mostly Cloudy,190,2013-05-19 15:54:00
11:13 AM,69.8,60.8,73,29.61,10.0,SSW,18.4,-,N/A,,Scattered Clouds,200,2013-05-19 16:13:00
11:33 AM,69.8,60.8,73,29.61,10.0,South,16.1,20.7,N/A,,Scattered Clouds,190,2013-05-19 16:33:00
11:54 AM,71.6,60.8,69,29.62,10.0,South,19.6,23.0,N/A,,Scattered Clouds,190,2013-05-19 16:54:00
12:13 PM,73.4,59.0,61,29.62,10.0,South,20.7,25.3,N/A,,Scattered Clouds,190,2013-05-19 17:13:00
12:33 PM,73.4,60.8,65,29.61,10.0,South,13.8,23.0,N/A,,Scattered Clouds,190,2013-05-19 17:33:00
12:54 PM,73.4,59.0,61,29.61,10.0,South,18.4,-,N/A,,Scattered Clouds,190,2013-05-19 17:54:00
1:13 PM,73.4,59.0,61,29.61,10.0,SSW,19.6,25.3,N/A,,Scattered Clouds,200,2013-05-19 18:13:00
1:34 PM,73.4,57.2,57,29.59,10.0,SSW,15.0,-,N/A,,Scattered Clouds,210,2013-05-19 18:34:00
2:14 PM,71.6,57.2,60,29.60,10.0,SSW,15.0,18.4,N/A,,Clear,210,2013-05-19 19:14:00
2:33 PM,71.6,57.2,60,29.60,10.0,SSW,13.8,-,N/A,,Clear,200,2013-05-19 19:33:00
2:54 PM,71.6,57.2,60,29.61,10.0,South,13.8,-,N/A,,Clear,190,2013-05-19 19:54:00
3:14 PM,69.8,57.2,64,29.62,10.0,South,15.0,-,N/A,,Light Drizzle,190,2013-05-19 20:14:00
3:33 PM,69.8,60.8,73,29.62,10.0,South,10.4,-,N/A,Rain,Light Rain,190,2013-05-19 20:33:00
3:53 PM,69.8,59.0,68,29.62,10.0,South,10.4,-,N/A,,Light Drizzle,180,2013-05-19 20:53:00
4:14 PM,68.0,60.8,78,29.61,10.0,South,10.4,-,N/A,,Scattered Clouds,170,2013-05-19 21:14:00
4:33 PM,68.0,60.8,78,29.61,10.0,South,8.1,-,N/A,Rain,Light Rain,170,2013-05-19 21:33:00
4:53 PM,69.8,60.8,73,29.60,10.0,South,9.2,-,N/A,,Clear,180,2013-05-19 21:53:00
5:14 PM,69.8,59.0,68,29.60,10.0,SSW,9.2,-,N/A,Rain,Light Rain,200,2013-05-19 22:14:00
5:33 PM,69.8,59.0,68,29.59,10.0,South,8.1,-,N/A,,Scattered Clouds,180,2013-05-19 22:33:00
5:53 PM,68.0,59.0,73,29.59,10.0,SSE,8.1,-,N/A,,Light Drizzle,160,2013-05-19 22:53:00
6:14 PM,66.2,62.6,88,29.58,10.0,SE,5.8,-,N/A,,Clear,140,2013-05-19 23:14:00
6:33 PM,66.2,62.6,88,29.56,7.0,SE,8.1,-,N/A,Rain,Light Rain,130,2013-05-19 23:33:00
6:53 PM,66.2,62.6,88,29.56,7.0,SE,9.2,-,N/A,,Clear,130,2013-05-19 23:53:00
7:14 PM,66.2,62.6,88,29.55,7.0,ESE,8.1,-,N/A,,Clear,110,2013-05-20 00:14:00
7:33 PM,66.2,62.6,88,29.54,7.0,ESE,9.2,-,N/A,,Clear,110,2013-05-20 00:33:00
7:54 PM,66.2,60.8,83,29.55,10.0,SE,5.8,-,N/A,,Clear,130,2013-05-20 00:54:00
8:13 PM,66.2,60.8,83,29.56,7.0,ESE,6.9,-,N/A,,Clear,110,2013-05-20 01:13:00
8:34 PM,64.4,60.8,88,29.57,7.0,SSE,8.1,-,N/A,,Clear,150,2013-05-20 01:34:00
8:53 PM,64.4,60.8,88,29.58,4.0,SSE,10.4,-,N/A,,Clear,150,2013-05-20 01:53:00
9:14 PM,64.4,60.8,88,29.58,5.0,SSE,9.2,-,N/A,,Clear,150,2013-05-20 02:14:00
9:33 PM,62.6,60.8,94,29.56,4.0,East,6.9,-,N/A,,Clear,100,2013-05-20 02:33:00
9:54 PM,62.6,59.0,88,29.56,5.0,SE,4.6,-,N/A,,Clear,140,2013-05-20 02:54:00
10:14 PM,60.8,57.2,88,29.55,5.0,ESE,3.5,-,N/A,,Clear,120,2013-05-20 03:14:00
10:33 PM,60.8,57.2,88,29.55,3.0,Calm,Calm,-,N/A,,Clear,0,2013-05-20 03:33:00
11:14 PM,59.0,57.2,94,29.53,2.5,NE,3.5,-,N/A,,Mostly Cloudy,50,2013-05-20 04:14:00
11:33 PM,60.8,57.2,88,29.54,2.5,ENE,6.9,-,N/A,,Mostly Cloudy,70,2013-05-20 04:33:00
11:54 PM,60.8,59.0,94,29.54,3.0,Calm,Calm,-,N/A,,Scattered Clouds,0,2013-05-20 04:54:00